This demonstration page uses our WeatherBlox Daily Observations layout. Learn more.

40.92945, -100.16068

Hourly Observations for March 28, 2015

Temp ( °F °C ) Dew Point ( °F °C ) Humidity (%) Winds ( mph kmh ) Pressure ( in mb ) Visibility ( mi km ) Precip ( " mm )
12:15 am 00:15 Partly Cloudy 38 3.2 32 -0.2 79 79 SE 3 6 30.06 1018 10 16.0934 N/A
12:35 am 00:35 Clear 40 4.3 33 0.4 76 76 Calm 30.03 1017 10 16.0934 N/A
12:55 am 00:55 Clear 37 2.9 31 -0.7 77 77 Calm 30.06 1018 10 16.0934 N/A
1:15 am 01:15 Clear 34 1.3 29 -1.4 82 82 Calm 30.06 1018 10 16.0934 N/A
1:35 am 01:35 Clear 34 1 28 -2.4 78 78 Calm 30.06 1018 10 16.0934 N/A
1:55 am 01:55 Clear 31 -0.5 27 -3 83 83 NNW 3 6 30.09 1019 10 16.0934 N/A
2:15 am 02:15 Clear 32 0 28 -2.3 85 85 N 7 11 30.09 1019 10 16.0934 N/A
2:35 am 02:35 Clear 31 -0.5 28 -2.5 87 87 NNE 7 11 30.09 1019 10 16.0934 N/A
2:55 am 02:55 Clear 32 0 29 -1.8 88 88 NE 3 6 30.09 1019 10 16.0934 N/A
3:15 am 03:15 Clear 32 -0.1 29 -1.8 88 88 Calm 30.09 1019 10 16.0934 N/A
3:35 am 03:35 Clear 32 0.1 29 -1.8 87 87 Calm 30.09 1019 10 16.0934 N/A
3:55 am 03:55 Clear 30 -1 26 -3.1 86 86 Calm 30.09 1019 10 16.0934 N/A
4:15 am 04:15 Clear 30 -1 27 -2.9 87 87 NNW 3 6 30.09 1019 10 16.0934 N/A
4:35 am 04:35 Clear 29 -1.5 26 -3.5 86 86 N 3 6 30.09 1019 10 16.0934 N/A
4:55 am 04:55 Clear 29 -1.6 26 -3.5 87 87 Calm 30.09 1019 10 16.0934 N/A
5:15 am 05:15 Clear 29 -1.4 26 -3.3 87 87 Calm 30.09 1019 10 16.0934 N/A
5:35 am 05:35 Clear 29 -1.7 26 -3.5 88 88 W 3 6 30.09 1019 10 16.0934 N/A
5:55 am 05:55 Clear 29 -1.6 26 -3.4 88 88 WNW 6 9 30.09 1019 10 16.0934 N/A
6:15 am 06:15 Clear 30 -1.1 27 -2.6 90 90 NNE 3 6 30.12 1020 10 16.0934 N/A
6:35 am 06:35 Clear 29 -1.9 26 -3.5 89 89 Calm 30.12 1020 10 16.0934 N/A
6:55 am 06:55 Clear 29 -1.7 26 -3.5 88 88 SSW 3 6 30.12 1020 10 16.0934 N/A
7:15 am 07:15 Clear 28 -2.2 26 -3.6 90 90 SW 3 6 30.12 1020 10 16.0934 N/A
7:35 am 07:35 Sunny 28 -2.5 25 -3.8 91 91 W 3 6 30.12 1020 10 16.0934 N/A
7:55 am 07:55 Sunny 29 -1.9 26 -3.2 91 91 WNW 5 7 30.12 1020 7 11.26538 N/A
8:15 am 08:15 Sunny 31 -0.5 28 -2 90 90 WNW 3 6 30.15 1021 7 11.26538 N/A
8:35 am 08:35 Sunny 33 0.3 30 -1.3 89 89 Calm 30.15 1021 10 16.0934 N/A
8:55 am 08:55 Sunny 35 1.7 31 -0.7 84 84 ENE 5 7 30.12 1020 10 16.0934 N/A
9:15 am 09:15 Sunny 38 3.2 32 -0.2 79 79 E 3 6 30.12 1020 10 16.0934 N/A
9:35 am 09:35 Sunny 41 4.8 33 0.3 73 73 Calm 30.09 1019 10 16.0934 N/A
9:55 am 09:55 Sunny 43 6.2 33 0.7 68 68 SE 3 6 30.09 1019 10 16.0934 N/A
10:15 am 10:15 Sunny 45 7 34 1.1 66 66 SE 5 7 30.09 1019 10 16.0934 N/A
10:35 am 10:35 Sunny 46 7.8 34 1.2 63 63 SE 6 9 30.06 1018 10 16.0934 N/A
10:55 am 10:55 Sunny 48 9 34 1.2 58 58 ESE 6 9 30.06 1018 10 16.0934 N/A
11:15 am 11:15 Sunny 50 10.1 34 0.9 53 53 ESE 7 11 30.06 1018 10 16.0934 N/A
11:35 am 11:35 Sunny 52 11.2 34 1.1 50 50 SE 7 11 30.03 1017 10 16.0934 N/A
11:55 am 11:55 Sunny 55 12.5 35 1.5 47 47 SE 9 15 30.03 1017 10 16.0934 N/A
12:15 pm 12:15 Sunny 56 13.1 34 1 44 44 ESE 12 19 30.03 1017 10 16.0934 N/A
12:35 pm 12:35 Sunny 58 14.3 33 0.8 40 40 ESE 9 15 29.97 1015 10 16.0934 N/A
12:55 pm 12:55 Sunny 60 15.8 33 0.8 36 36 SE 12 19 29.97 1015 10 16.0934 N/A
1:15 pm 13:15 Sunny 61 16.3 33 0.6 35 35 SE 12 19 29.97 1015 10 16.0934 N/A
1:35 pm 13:35 Sunny 63 17.4 33 0.8 33 33 SSE 13 20 29.94 1014 10 16.0934 N/A
1:55 pm 13:55 Sunny 65 18.3 34 1.2 32 32 SSE 15 24 29.91 1013 10 16.0934 N/A
2:15 pm 14:15 Sunny 66 18.9 34 1.3 31 31 SSE 12 19 29.91 1013 10 16.0934 N/A
2:35 pm 14:35 Sunny 67 19.6 34 1.3 30 30 SSE 18 30 29.88 1012 10 16.0934 N/A
2:55 pm 14:55 Sunny 69 20.4 35 1.8 29 29 SSE 10 17 29.88 1012 10 16.0934 N/A
3:15 pm 15:15 Sunny 69 20.8 35 1.7 28 28 SSE 14 22 29.85 1011 10 16.0934 N/A
3:35 pm 15:35 Sunny 70 21 35 1.5 28 28 S 13 20 29.85 1011 10 16.0934 N/A
3:55 pm 15:55 Sunny 70 21.1 35 1.5 27 27 S 15 24 29.83 1010 10 16.0934 N/A
4:15 pm 16:15 Sunny 70 21.2 35 1.5 27 27 SSE 14 22 29.83 1010 10 16.0934 N/A
4:35 pm 16:35 Sunny 71 21.5 35 1.6 27 27 S 16 26 29.83 1010 10 16.0934 N/A
4:55 pm 16:55 Sunny 71 21.6 35 1.6 27 27 S 17 28 29.83 1010 10 16.0934 N/A
5:15 pm 17:15 Sunny 71 21.7 35 1.5 26 26 S 21 33 29.83 1010 10 16.0934 N/A
5:35 pm 17:35 Sunny 71 21.6 35 1.7 27 27 SSE 20 31 29.8 1009 10 16.0934 N/A
5:55 pm 17:55 Sunny 71 21.5 35 1.7 27 27 S 17 28 29.8 1009 10 16.0934 N/A
6:15 pm 18:15 Sunny 70 20.9 35 1.7 28 28 SSE 20 31 29.8 1009 10 16.0934 N/A
6:35 pm 18:35 Sunny 69 20.3 35 1.4 29 29 SSE 23 37 29.77 1008 10 16.0934 N/A
6:55 pm 18:55 Sunny 68 19.9 35 1.5 29 29 SSE 22 35 29.77 1008 10 16.0934 N/A
7:15 pm 19:15 Sunny 67 19.2 35 1.5 31 31 SSE 21 33 29.77 1008 10 16.0934 N/A
7:35 pm 19:35 Sunny 65 18.5 35 1.5 32 32 SSE 21 33 29.74 1007 10 16.0934 N/A
7:55 pm 19:55 Sunny 64 17.5 35 1.5 34 34 SE 20 31 29.77 1008 10 16.0934 N/A
8:15 pm 20:15 Clear 63 17 35 1.6 36 36 SSE 20 31 29.77 1008 10 16.0934 N/A
8:35 pm 20:35 Clear 61 16.3 35 1.8 38 38 SSE 21 33 29.77 1008 10 16.0934 N/A
8:55 pm 20:55 Clear 60 15.7 36 2 40 40 SSE 21 33 29.77 1008 10 16.0934 N/A
9:15 pm 21:15 Clear 59 15.1 36 2 41 41 SSE 20 31 29.77 1008 10 16.0934 N/A
9:35 pm 21:35 Clear 58 14.5 36 2.2 44 44 SSE 18 30 29.74 1007 10 16.0934 N/A
9:55 pm 21:55 Clear 57 14 37 2.5 46 46 SSE 17 28 29.77 1008 10 16.0934 N/A
10:15 pm 22:15 Clear 57 13.8 37 2.7 47 47 SSE 17 28 29.77 1008 10 16.0934 N/A
10:35 pm 22:35 Clear 57 13.8 37 3 48 48 SSE 15 24 29.77 1008 10 16.0934 N/A
10:55 pm 22:55 Clear 56 13.5 38 3.2 50 50 SSE 16 26 29.77 1008 10 16.0934 N/A
11:15 pm 23:15 Clear 58 14.2 39 3.7 49 49 SSE 21 33 29.74 1007 10 16.0934 N/A
11:35 pm 23:35 Clear 57 14 39 3.8 50 50 S 12 19 29.77 1008 10 16.0934 N/A
11:55 pm 23:55 Partly Cloudy 58 14.3 39 4 50 50 N 8 13 29.85 1011 10 16.0934 N/A

Powered by AerisWeather